Location: Newark
(46.9000°N, 28.3500°E)
Time: 20:39:10
(UTC+00:00)

Explorer 7 - All Passes

Search period start: 25 August 2019 00:00
Search period end: 04 September 2019 00:00
Orbit: 485 x 680 km, 50.3° (Epoch: 25 August)

Date Brightness Start Highest point End Pass type
(mag) Time Alt. Az. Time Alt. Az. Time Alt. Az.
25 Aug - 06:25:49 10° SSW 06:30:22 40° SE 06:34:46 10° ENE daylight
25 Aug - 08:06:03 10° WSW 08:10:52 75° NNW 08:15:27 10° ENE daylight
25 Aug - 09:47:13 10° WNW 09:51:50 55° N 09:56:11 10° E daylight
25 Aug - 11:28:07 10° WNW 11:32:40 85° SSW 11:36:55 10° ESE daylight
25 Aug - 13:09:21 10° W 13:12:46 23° SW 13:16:00 10° S daylight
26 Aug - 04:52:42 10° SSE 04:55:23 15° SE 04:58:01 10° E daylight
26 Aug - 06:30:33 10° SW 06:35:19 56° SSE 06:39:56 10° ENE daylight
26 Aug - 08:11:13 10° W 08:16:00 64° NNW 08:20:32 10° ENE daylight
26 Aug - 09:52:22 10° WNW 09:57:00 59° N 10:01:21 10° E daylight
26 Aug - 11:33:12 10° WNW 11:37:42 63° SSW 11:41:53 10° SE daylight
26 Aug - 13:15:05 10° W 13:17:32 15° SW 13:19:53 10° SSW daylight
27 Aug - 04:56:25 10° S 05:00:09 22° SE 05:03:51 10° E daylight
27 Aug - 06:35:27 10° WSW 06:40:19 76° SSE 06:45:02 10° ENE daylight
27 Aug - 08:16:24 10° W 08:21:09 58° N 08:25:39 10° ENE daylight
27 Aug - 09:57:28 10° WNW 10:02:09 68° NNE 10:06:32 10° E daylight
27 Aug - 11:38:20 10° WNW 11:42:39 44° SW 11:46:41 10° SE daylight
28 Aug - 05:00:40 10° SSW 05:05:00 32° SE 05:09:16 10° E daylight
28 Aug - 06:40:29 10° WSW 06:45:22 85° NNW 06:50:06 10° ENE daylight
28 Aug - 08:21:35 10° W 08:26:19 56° N 08:30:49 10° ENE daylight
28 Aug - 10:02:34 10° WNW 10:07:15 82° NNE 10:11:39 10° ESE daylight
28 Aug - 11:43:35 10° W 11:47:32 30° SW 11:51:17 10° SSE daylight
29 Aug - 03:28:54 10° SE 03:30:08 11° SE 03:31:22 10° ESE daylight
29 Aug - 05:05:14 10° SW 05:09:54 45° SE 05:14:29 10° ENE daylight
29 Aug - 06:45:36 10° W 06:50:29 71° NNW 06:55:11 10° ENE daylight
29 Aug - 08:26:45 10° WNW 08:31:30 57° N 08:35:58 10° E daylight
29 Aug - 10:07:38 10° WNW 10:12:19 78° SSW 10:16:41 10° ESE daylight
29 Aug - 11:49:01 10° W 11:52:21 21° SW 11:55:31 10° S daylight
30 Aug - 03:31:42 10° S 03:34:52 17° SE 03:38:00 10° E daylight
30 Aug - 05:10:01 10° SW 05:14:52 63° SSE 05:19:37 10° ENE daylight
30 Aug - 06:50:46 10° W 06:55:37 62° N 07:00:17 10° ENE daylight
30 Aug - 08:31:53 10° WNW 08:36:39 62° N 08:41:09 10° E daylight
30 Aug - 10:12:44 10° WNW 10:17:19 57° SSW 10:21:36 10° SE daylight
30 Aug - 11:54:56 10° WSW 11:57:05 13° SW 11:59:11 10° SSW daylight
31 Aug - 03:35:39 10° SSW 03:39:39 25° SE 03:43:38 10° E daylight
31 Aug - 05:14:57 10° WSW 05:19:53 82° SSE 05:24:42 10° ENE daylight
31 Aug - 06:55:58 10° W 07:00:46 57° N 07:05:24 10° ENE daylight
31 Aug - 08:36:59 10° WNW 08:41:47 72° NNE 08:46:19 10° ESE daylight
31 Aug - 10:17:54 10° WNW 10:22:15 40° SW 10:26:21 10° SSE daylight
01 Sep - 03:40:01 10° SSW 03:44:31 36° SE 03:48:58 10° ENE daylight
01 Sep - 05:20:01 10° WSW 05:24:57 80° NNW 05:29:47 10° ENE daylight
01 Sep - 07:01:09 10° WNW 07:05:57 56° N 07:10:34 10° E daylight
01 Sep - 08:42:04 10° WNW 08:46:53 88° NNE 08:51:24 10° ESE daylight
01 Sep - 10:23:10 10° W 10:27:06 28° SW 10:30:50 10° SSE daylight
02 Sep - 02:07:27 10° SSE 02:09:36 13° SE 02:11:45 10° ESE visible
02 Sep - 03:44:40 10° SW 03:49:25 51° SSE 03:54:09 10° ENE daylight
02 Sep - 05:25:10 10° W 05:30:04 68° NNW 05:34:52 10° ENE daylight
02 Sep - 07:06:18 10° WNW 07:11:07 59° N 07:15:43 10° E daylight
02 Sep - 08:47:09 10° WNW 08:51:56 72° SSW 08:56:24 10° ESE daylight
02 Sep - 10:28:41 10° W 10:31:54 19° SW 10:34:59 10° S daylight
03 Sep - 02:10:51 10° S 02:14:20 20° SE 02:17:50 10° E visible
03 Sep - 03:49:30 10° SW 03:54:24 69° SSE 03:59:16 10° ENE daylight
03 Sep - 05:30:20 10° W 05:35:13 60° N 05:39:58 10° ENE daylight
03 Sep - 07:11:25 10° WNW 07:16:16 66° NNE 07:20:55 10° E daylight
03 Sep - 08:52:16 10° WNW 08:56:54 52° SSW 09:01:16 10° SE daylight
03 Sep - 10:34:51 10° WSW 10:36:37 12° SW 10:38:20 10° SSW daylight
